Regional Weather Roundup
Issued by NWS Albany, NY

Home | Current Version | Previous Version | Text Only | Print | Product List | Glossary On
Versions: 1 2 3 4 5 6 7 8 9 10 11 12 13 14 15 16 17 18 19 20 21 22 23 24 25 26 27
000
ASUS41 KALY 010610
RWRALY

NEW YORK STATE HOURLY WEATHER ROUNDUP
NATIONAL WEATHER SERVICE ALBANY NY
200 AM EDT MON MAY 01 2017

NOTE: "FAIR" INDICATES FEW OR NO CLOUDS BELOW 12,000 FEET WITH NO
SIGNIFICANT WEATHER AND/OR NO OBSTRUCTIONS TO VISIBILITY.

NYZ032-033-038>043-046>054-057>066-NYZ062>081-082-084-010700-
EAST


CITY           SKY/WX    TMP DP  RH WIND       PRES   REMARKS
ALBANY         CLOUDY    52  39  61 S13G26    30.07F
GLENS FALLS    CLOUDY    46  40  79 CALM      30.05F
POUGHKEEPSIE   CLOUDY    50  39  66 SE7       30.11F
NEWBURGH       CLOUDY    50  41  71 SE5       30.13F
MONTGOMERY     CLOUDY    51  41  68 S6        30.11F
WHITE PLAINS   CLOUDY    47  43  86 E9        30.12F FOG
ISLIP          CLOUDY    48  47  96 E9        30.12F FOG
NEW YORK CITY  CLOUDY    51  48  89 NE10      30.11F FOG
CENTRAL PARK   CLOUDY    50  48  93 VRB5      30.14F
$$

NYZ005>009-017-018-044>046-055-056-010700-
CENTRAL


CITY           SKY/WX    TMP DP  RH WIND       PRES   REMARKS
FULTON         MOCLDY    54  46  74 CALM      29.90R
SYRACUSE       MOCLDY    51  45  79 NE6       29.87F
ROME           CLOUDY    52  44  74 E12       29.95F
ELMIRA         PTCLDY    61  51  70 SE6       29.91F
BINGHAMTON     CLEAR     53  47  79 S10       29.96F
MONTICELLO     CLOUDY    48  43  81 SE9       30.10F
$$

NYZ026>034-041>043-087-010700-
NORTH


CITY           SKY/WX    TMP DP  RH WIND       PRES   REMARKS
WATERTOWN      LGT RAIN  44  44 100 NE5       29.92R
FORT DRUM      NOT AVBL
OGDENSBURG     RAIN      41  40  94 NE5       29.93F
MASSENA        HVY RAIN  42  41  96 E9        29.96F FOG
SARANAC LAKE   CLOUDY    39  36  89 CALM      29.90F
PLATTSBURGH    PTCLDY    43  37  79 S10       29.95F
$$

NYZ001>004-010>016-019>021-085-010700-
WEST


CITY           SKY/WX    TMP DP  RH WIND       PRES   REMARKS
NIAGARA FALLS  CLOUDY    50  46  86 SE6       29.80F
BUFFALO        CLOUDY    48  46  93 SE7       29.81F
DUNKIRK        MOCLDY    50  49  96 E12       29.80F
JAMESTOWN      PTCLDY    63  57  82 S13       29.83F
WELLSVILLE     PTCLDY    64  57  78 S12G25    29.91F
ROCHESTER      CLOUDY    44  43  96 VRB3      29.86F
PENN YAN       MOCLDY    63  51  65 S10       29.87F
$$

             KEY
       WCI = WIND CHILL INDEX
       VSB = VISIBILITY
       HX  = HEAT INDEX
$$




USA.gov is the U.S. government's official web portal to all federal, state and local government web resources and services.